SCP
0 0 0 0 0 0 0 0 0 0 0 0 0 0 0 0 0 0 0 0 0 0 0 0 0 0 0 0 0 0 0 0 0 0 0 0 0 0 0 0 0 0 0 0
0 0 0 0 0 0 0 0 0 0 0 0 0 0 0 0 0 0 0 0 0 0 0 0 0 0 0 0 0 0 0 0 0 0 0 0 0 0 0 0 0 0 0 0
0 0 0 0 0 0 0 0 0 0 0 0 0 0 0 0 0 0 0 0 0 0 0 0 0 0 0 0 0 0 0 0 0 0 0 0 0 0 0 0 0 0 0 0
0 0 0 0 0 0 0 0 0 0 0 0 0 0 0 0 0 0 0 0 0 0 0 0 0 0 0 0 0 0 0 0 0 0 0 0 0 0 0 0 0 0 0 0
0 0 0 0 0 0 0 0 0 0 0 0 0 0 -0 -0 0 0 0 0 0 0 0 0 0 0 0 0 0 0 0 0 0 0 0 0 0 0 0 0 0 0 0 0
0 0 0 0 0 0 0 0 0 0 0 0 0 0 0 0 0 0 0 0 0 0 0 0 0 0 0 0 0 0 0 0 0 0 0 0 0 0 0 0 0 0 0 0
0 0 0 0 0 0 0 0 0 0 0 0 0 0 0 0 0 0 0 0 0 0 0 0 0 0 0 0 0 0 0 0 0 0 0 0 0 0 0 0 0 0 0 0
0 0 0 0 0 0 0 0 0 0 0 0 0 0 0 0 0 0 0 0 0 0 0 0 0 0 0 0 0 0 0 0 0 0 0 0 0 0 0 0 0 0 0 0
0 0 0 0 0 0 0 0 0 0 0 0 0 0 0 0 0 0 0 0 -0 0 0 0 0 0 0 0 0 0 0 0 0 0 0 0 0 0 0 0 0 0 0 0
0 0 0 0 0 0 0 0 0 0 0 0 0 0 0 0 0 0 0 0 0 0 0 0 0 0 0 0 0 0 0 0 0 0 0 0 0 0 0 0 0 0 0 0
0 0 0 0 0 0 0 0 0 0 0 0 0 0 -0 -0 0 0 0 0 -0 -0 0 0 0 0 0 0 0 0 0 0 0 0 0 0 0 0 0 0 0 0 0 0
0 0 0 0 0 0 0 0 0 0 0 0 0 0 0 0 0 0 0 0 0 0 0 0 0 0 0 0 0 0 0 0 0 0 0 0 0 0 0 0 0 0 0 0
0 0 0 0 0 0 0 0 0 0 0 0 0 0 0 0 -0 -0 0 0 0 0 0 0 0 0 0 0 0 0 0 0 0 0 0 0 0 0 0 0 0 0 0 0
0 0 0 0 0 0 0 0 0 0 0 0 0 0 0 0 0 0 0 0 0 0 0 0 0 0 0 0 0 0 0 0 0 0 0 0 0 0 0 0 0 0 0 0
0 0 0 0 0 0 0 0 0 0 0 0 0 0 0 0 0 -0 0 0 0 0 0 0 0 0 0 0 0 0 0 0 0 0 0 0 0 0 0 0 0 0 0 0
0 0 0 0 0 0 0 0 0 0 0 0 0 0 0 0 0 0 0 0 0 0 0 0 0 0 0 0 0 0 0 0 0 0 0 0 0 0 0 0 0 0 0 0
0 0 0 0 0 0 0 0 0 0 0 0 0 0 0 0 0 0 0 0 0 0 0 0 0 0 0 0 0 0 0 0 0 0 0 0 0 0 0 0 0 0 0 0
0 0 0 0 0 0 0 0 0 0 0 0 0 0 0 0 0 0 0 0 0 0 0 0 0 0 0 0 0 0 0 0 0 0 0 0 0 0 0 0 0 0 0 0
0 0 0 0 0 0 0 0 0 0 0 0 0 0 0 0 0 0 0 0 0 0 0 0 0 0 0 0 0 0 0 0 0 0 0 0 0 0 0 0 0 0 0 0
0 0 0 0 0 0 0 0 0 0 -0 0 0 0 0 0 0 0 0 0 0 0 0 0 0 0 0 0 0 0 0 0 0 0 0 0 0 0 0 0 0 0 0 0
0 0 0 0 0 0 0 0 0 0 0 0 0 0 0 0 0 0 0 0 0 0 0 0 0 0 0 0 0 0 0 0 0 0 0 0 0 0 0 0 0 0 0 0
0 0 0 0 0 0 0 0 0 0 0 0 0 0 0 0 0 0 0 0 0 0 0 0 0 0 0 0 0 0 0 0 0 0 0 0 0 0 0 0 0 0 0 0
0 0 0 0 0 0 0 0 0 0 0 0 0 0 0 0 0 0 0 0 0 0 0 0 0 0 0 0 0 0 0 0 0 0 0 0 0 0 0 0 0 0 0 0
0 0 0 0 0 0 0 0 0 0 0 0 0 0 0 0 0 0 0 0 0 0 0 0 0 0 0 0 0 0 0 0 0 0 0 0 0 0 0 0 0 0 0 0
0 0 0 0 0 0 0 0 0 0 0 0 0 0 0 0 0 0 0 0 0 0 0 0 0 0 0 0 0 0 0 0 0 0 0 0 0 0 0 0 0 0 0 0
0 0 0 0 0 0 0 0 0 0 0 0 0 0 0 0 0 0 0 0 0 0 0 0 0 0 0 0 0 0 0 0 0 0 0 0 0 0 0 0 0 0 0 0
Wind_Speed_500mb
20 9 23 14 7 10 14 8 8 3 6 2 10 13 22 26 20 31 44 45 54 61 55 54 52 50 51 54 57 57 56 52 50 49 48 47 48 43 41 41 35 33 34 35
8 26 11 17 10 9 9 8 3 8 2 6 8 17 20 18 22 46 45 53 56 62 60 59 57 55 56 52 59 60 60 58 57 55 51 49 44 45 44 43 40 30 40 38
14 5 23 14 10 13 6 9 8 7 4 2 7 22 18 15 27 57 52 48 53 66 66 66 63 61 59 57 60 60 61 60 59 58 57 57 58 57 54 51 44 44 39 35
9 10 22 17 12 13 12 11 10 8 6 8 1 14 13 20 28 18 55 62 62 55 70 70 65 64 65 62 57 60 60 61 62 59 62 61 62 60 55 50 47 44 31 31
10 15 16 20 17 17 11 14 11 8 6 1 2 6 13 13 27 25 45 61 64 69 60 73 72 66 65 60 61 63 65 65 66 65 66 63 62 58 51 46 43 43 39 37
8 5 15 16 12 13 21 14 11 8 5 9 14 13 11 14 20 14 27 64 71 69 65 64 68 69 67 65 65 65 70 70 71 70 69 70 67 62 57 52 49 43 43 42
7 7 5 14 13 2 8 15 4 2 2 16 8 11 38 15 11 17 29 62 70 71 68 71 74 76 72 74 71 65 66 68 68 72 72 69 68 67 60 57 54 47 47 50
22 11 16 8 13 14 11 13 10 14 9 6 3 17 13 20 42 49 47 38 35 48 54 64 72 77 79 73 70 64 63 63 64 65 67 67 65 65 65 61 56 50 52 48
13 8 2 8 11 20 12 22 15 8 5 5 10 15 19 18 21 25 39 53 53 42 39 40 48 56 59 72 69 64 59 58 58 58 59 59 61 63 64 59 53 52 53 51
14 10 2 6 12 5 18 19 8 3 5 8 9 11 14 10 15 21 18 30 43 50 47 39 35 36 41 51 57 57 56 53 52 54 56 57 59 60 60 57 56 51 50 50
13 9 0 12 14 16 10 14 6 12 10 9 2 11 15 17 9 12 20 29 30 28 39 43 34 32 39 46 49 49 47 47 50 53 54 55 55 54 53 50 46 40 44 44
10 12 8 12 4 9 11 16 16 10 4 3 6 15 10 7 4 13 28 28 26 25 28 33 34 34 35 38 40 38 40 43 47 48 48 45 43 41 42 43 42 43 42 41
17 2 7 7 8 4 9 8 29 6 5 12 9 20 3 8 7 10 22 25 21 16 19 31 34 36 36 34 35 36 36 38 38 39 38 34 33 33 35 41 44 42 41 41
34 8 15 18 7 14 13 12 13 32 10 25 29 49 22 26 7 12 17 22 14 15 22 30 36 38 35 34 34 34 34 34 33 33 34 31 31 30 34 40 40 49 40 38
9 12 7 6 7 5 10 18 20 27 45 26 57 31 29 16 16 23 33 23 14 17 31 39 39 36 33 35 36 38 36 34 32 31 31 32 33 34 38 41 42 43 38 36
4 3 9 1 5 6 2 18 35 43 45 32 12 30 10 34 50 41 39 29 34 35 34 34 40 40 40 40 39 37 36 34 33 33 33 33 35 36 40 42 42 41 41 39
24 15 9 17 1 10 9 36 28 34 36 36 33 46 15 11 18 41 44 40 43 42 35 34 34 36 42 44 38 36 34 36 36 37 37 36 36 36 39 41 40 41 39 39
21 13 7 7 4 11 19 5 25 40 28 33 21 4 17 35 61 61 56 57 49 41 40 43 36 38 41 41 39 38 40 40 41 42 42 41 39 40 40 41 42 43 43 42
8 16 5 12 9 11 26 14 15 16 20 30 26 16 40 44 24 58 69 58 64 59 51 45 37 38 36 40 39 40 42 43 45 44 44 43 43 44 45 46 46 45 45 43
10 10 9 7 15 23 7 19 27 11 38 23 31 25 35 25 7 29 39 34 48 61 50 38 32 32 34 36 38 41 44 48 47 45 43 43 44 45 45 45 47 46 43 40
8 4 32 4 13 17 12 9 29 18 16 12 34 51 32 15 27 9 11 16 21 26 30 32 30 30 30 35 40 45 49 50 43 41 42 43 44 44 46 46 44 43 43 41
14 16 11 6 6 35 15 8 33 16 17 13 18 20 30 30 23 13 14 12 8 9 12 16 18 21 25 29 35 41 47 47 43 43 45 48 48 49 49 47 47 46 44 42
4 13 14 25 14 5 47 8 24 24 17 21 19 14 12 16 19 13 7 4 4 4 4 6 8 10 11 16 22 30 37 41 42 44 47 49 48 49 50 50 49 49 48 45
8 7 8 8 9 9 50 24 32 23 18 19 15 16 15 15 18 15 15 13 15 17 16 16 14 10 6 2 9 18 29 34 40 43 46 47 50 51 52 52 50 47 46 44
9 18 12 3 5 4 16 53 31 34 24 25 25 22 25 28 28 23 21 20 17 18 18 18 17 13 8 3 4 12 23 31 37 40 43 48 49 50 50 51 50 49 46 42
13 14 12 9 29 14 18 49 43 31 31 28 31 33 30 26 26 22 20 19 17 16 14 11 9 7 7 6 6 11 21 30 34 38 43 46 48 50 52 52 53 52 49 44
Wind_Direction_500mb
169 140 196 177 143 114 128 115 142 234 5 149 234 249 250 240 245 240 243 240 234 232 230 227 226 228 231 229 226 226 229 228 228 228 229 232 235 233 236 239 241 241 241 246
108 217 160 132 134 101 103 121 220 298 154 175 318 265 256 250 238 243 248 241 242 238 231 229 227 228 230 230 231 229 230 231 232 234 233 238 244 244 242 244 246 250 246 249
168 189 144 133 136 133 101 139 158 223 329 258 306 270 244 259 239 249 246 252 244 248 240 233 229 229 232 232 232 232 232 231 230 233 236 239 244 245 243 243 243 248 248 246
175 132 147 146 164 136 163 173 129 149 139 235 72 281 258 239 237 216 240 242 245 247 248 243 238 232 232 235 236 236 235 233 232 231 236 238 244 246 248 248 247 251 255 250
181 141 130 173 169 149 185 148 127 112 123 103 276 305 258 235 235 238 230 233 246 244 245 246 242 237 238 239 237 237 235 235 234 232 236 240 242 244 245 250 248 244 248 251
156 174 152 163 155 152 145 104 67 73 80 265 202 193 241 211 222 230 232 237 237 245 247 249 250 247 243 239 237 235 232 233 235 235 237 242 244 245 243 242 244 239 251 257
130 164 152 131 100 112 152 142 58 241 212 234 300 214 253 260 253 219 222 236 233 234 240 248 251 249 245 243 239 235 232 230 232 235 237 241 243 246 247 248 246 244 249 252
168 197 162 182 156 164 178 166 160 188 198 240 94 229 252 245 260 251 259 253 240 237 243 245 249 251 246 240 238 237 231 228 230 233 236 239 240 245 248 248 247 243 236 248
138 200 100 149 150 141 188 209 152 80 14 70 216 285 294 260 273 260 250 249 254 247 243 249 250 252 246 233 231 232 228 226 229 232 233 236 241 244 249 250 245 239 229 235
185 121 293 161 118 72 183 145 123 92 225 250 263 270 241 327 258 262 278 267 266 261 252 250 248 239 228 221 221 222 222 225 228 230 232 236 242 247 251 249 242 227 226 230
137 99 190 137 210 155 125 182 185 148 179 185 290 260 216 248 358 315 293 287 279 257 246 241 231 216 214 215 215 217 219 223 227 233 237 241 246 247 244 237 225 218 220 225
191 119 143 201 239 186 188 173 177 174 215 223 132 257 207 190 277 284 285 297 284 251 236 220 209 200 205 213 216 219 223 227 232 237 242 244 237 229 223 217 207 208 215 208
176 132 89 24 347 352 220 177 203 129 73 207 138 260 283 147 238 287 304 319 294 262 225 208 203 202 201 214 225 226 229 230 228 226 225 220 217 210 201 196 195 203 202 219
147 135 165 181 180 136 188 195 182 190 184 220 224 238 247 272 250 322 315 314 309 243 226 221 212 210 205 213 221 224 222 222 221 220 219 212 210 199 193 192 200 204 207 222
133 163 112 44 54 111 154 174 172 193 221 192 242 245 238 244 289 280 279 275 283 255 234 228 222 219 216 213 214 215 213 214 215 216 213 209 204 197 189 192 197 203 212 222
86 182 119 29 16 102 166 195 195 209 226 238 243 261 178 236 243 251 245 259 262 269 259 238 228 222 220 216 211 211 214 214 215 215 213 208 203 199 194 195 200 209 210 220
163 139 122 228 185 105 322 218 198 217 218 219 232 247 180 213 232 244 252 250 258 277 271 263 249 235 229 221 216 215 217 221 220 217 213 210 207 204 202 202 210 213 212 203
169 116 101 156 87 191 253 138 205 205 223 220 256 163 190 227 245 256 260 264 268 266 273 277 268 244 234 225 221 217 216 220 220 218 215 211 210 208 207 207 205 203 201 199
19 155 116 149 196 289 268 175 143 166 252 213 228 239 244 255 262 266 257 255 257 263 264 267 259 242 238 231 226 223 223 221 220 218 216 214 211 209 207 205 204 203 203 200
64 161 143 129 174 216 347 196 174 108 282 174 195 218 228 194 197 251 265 263 257 258 260 258 237 226 228 231 231 229 227 227 225 222 219 214 211 209 208 207 206 205 202 203
94 73 207 151 226 275 225 134 148 166 264 177 213 224 212 191 222 232 258 250 245 244 241 238 227 228 234 231 229 229 230 230 230 224 218 214 212 210 210 211 209 207 207 206
149 154 193 76 195 256 157 90 184 200 204 177 186 209 225 230 223 211 220 231 243 241 235 232 228 229 228 229 231 232 232 231 225 221 218 216 215 213 212 212 212 210 212 213
217 190 172 191 203 217 184 172 191 178 193 200 197 199 214 193 193 199 221 219 195 179 172 179 189 194 210 223 229 233 233 228 225 222 221 219 218 217 216 216 215 215 215 215
237 170 163 108 207 209 192 199 187 181 197 188 180 157 151 153 157 155 139 117 100 94 88 85 84 82 93 180 230 224 221 226 225 226 225 224 222 220 218 218 218 221 222 220
182 135 149 277 270 161 229 211 202 199 190 177 160 153 143 139 134 128 123 116 104 93 84 77 75 74 76 87 218 221 222 221 225 227 228 227 226 225 225 223 223 222 222 223
192 165 164 205 190 162 196 209 205 193 183 175 171 149 140 139 135 129 121 109 100 96 93 86 69 41 20 349 295 247 232 228 228 230 231 231 230 228 226 225 226 225 223 228
Wind_Speed_850mb
20 9 23 14 7 10 14 8 8 3 6 2 10 13 22 26 20 31 44 45 54 61 55 54 52 50 51 54 57 57 56 52 50 49 48 47 48 43 41 41 35 33 34 35
8 26 11 17 10 9 9 8 3 8 2 6 8 17 20 18 22 46 45 53 56 62 60 59 57 55 56 52 59 60 60 58 57 55 51 49 44 45 44 43 40 30 40 38
14 5 23 14 10 13 6 9 8 7 4 2 7 22 18 15 27 57 52 48 53 66 66 66 63 61 59 57 60 60 61 60 59 58 57 57 58 57 54 51 44 44 39 35
9 10 22 17 12 13 12 11 10 8 6 8 1 14 13 20 28 18 55 62 62 55 70 70 65 64 65 62 57 60 60 61 62 59 62 61 62 60 55 50 47 44 31 31
10 15 16 20 17 17 11 14 11 8 6 1 2 6 13 13 27 25 45 61 64 69 60 73 72 66 65 60 61 63 65 65 66 65 66 63 62 58 51 46 43 43 39 37
8 5 15 16 12 13 21 14 11 8 5 9 14 13 11 14 20 14 27 64 71 69 65 64 68 69 67 65 65 65 70 70 71 70 69 70 67 62 57 52 49 43 43 42
7 7 5 14 13 2 8 15 4 2 2 16 8 11 38 15 11 17 29 62 70 71 68 71 74 76 72 74 71 65 66 68 68 72 72 69 68 67 60 57 54 47 47 50
22 11 16 8 13 14 11 13 10 14 9 6 3 17 13 20 42 49 47 38 35 48 54 64 72 77 79 73 70 64 63 63 64 65 67 67 65 65 65 61 56 50 52 48
13 8 2 8 11 20 12 22 15 8 5 5 10 15 19 18 21 25 39 53 53 42 39 40 48 56 59 72 69 64 59 58 58 58 59 59 61 63 64 59 53 52 53 51
14 10 2 6 12 5 18 19 8 3 5 8 9 11 14 10 15 21 18 30 43 50 47 39 35 36 41 51 57 57 56 53 52 54 56 57 59 60 60 57 56 51 50 50
13 9 0 12 14 16 10 14 6 12 10 9 2 11 15 17 9 12 20 29 30 28 39 43 34 32 39 46 49 49 47 47 50 53 54 55 55 54 53 50 46 40 44 44
10 12 8 12 4 9 11 16 16 10 4 3 6 15 10 7 4 13 28 28 26 25 28 33 34 34 35 38 40 38 40 43 47 48 48 45 43 41 42 43 42 43 42 41
17 2 7 7 8 4 9 8 29 6 5 12 9 20 3 8 7 10 22 25 21 16 19 31 34 36 36 34 35 36 36 38 38 39 38 34 33 33 35 41 44 42 41 41
34 8 15 18 7 14 13 12 13 32 10 25 29 49 22 26 7 12 17 22 14 15 22 30 36 38 35 34 34 34 34 34 33 33 34 31 31 30 34 40 40 49 40 38
9 12 7 6 7 5 10 18 20 27 45 26 57 31 29 16 16 23 33 23 14 17 31 39 39 36 33 35 36 38 36 34 32 31 31 32 33 34 38 41 42 43 38 36
4 3 9 1 5 6 2 18 35 43 45 32 12 30 10 34 50 41 39 29 34 35 34 34 40 40 40 40 39 37 36 34 33 33 33 33 35 36 40 42 42 41 41 39
24 15 9 17 1 10 9 36 28 34 36 36 33 46 15 11 18 41 44 40 43 42 35 34 34 36 42 44 38 36 34 36 36 37 37 36 36 36 39 41 40 41 39 39
21 13 7 7 4 11 19 5 25 40 28 33 21 4 17 35 61 61 56 57 49 41 40 43 36 38 41 41 39 38 40 40 41 42 42 41 39 40 40 41 42 43 43 42
8 16 5 12 9 11 26 14 15 16 20 30 26 16 40 44 24 58 69 58 64 59 51 45 37 38 36 40 39 40 42 43 45 44 44 43 43 44 45 46 46 45 45 43
10 10 9 7 15 23 7 19 27 11 38 23 31 25 35 25 7 29 39 34 48 61 50 38 32 32 34 36 38 41 44 48 47 45 43 43 44 45 45 45 47 46 43 40
8 4 32 4 13 17 12 9 29 18 16 12 34 51 32 15 27 9 11 16 21 26 30 32 30 30 30 35 40 45 49 50 43 41 42 43 44 44 46 46 44 43 43 41
14 16 11 6 6 35 15 8 33 16 17 13 18 20 30 30 23 13 14 12 8 9 12 16 18 21 25 29 35 41 47 47 43 43 45 48 48 49 49 47 47 46 44 42
4 13 14 25 14 5 47 8 24 24 17 21 19 14 12 16 19 13 7 4 4 4 4 6 8 10 11 16 22 30 37 41 42 44 47 49 48 49 50 50 49 49 48 45
8 7 8 8 9 9 50 24 32 23 18 19 15 16 15 15 18 15 15 13 15 17 16 16 14 10 6 2 9 18 29 34 40 43 46 47 50 51 52 52 50 47 46 44
9 18 12 3 5 4 16 53 31 34 24 25 25 22 25 28 28 23 21 20 17 18 18 18 17 13 8 3 4 12 23 31 37 40 43 48 49 50 50 51 50 49 46 42
13 14 12 9 29 14 18 49 43 31 31 28 31 33 30 26 26 22 20 19 17 16 14 11 9 7 7 6 6 11 21 30 34 38 43 46 48 50 52 52 53 52 49 44
Wind_Direction_850mb
169 140 196 177 143 114 128 115 142 234 5 149 234 249 250 240 245 240 243 240 234 232 230 227 226 228 231 229 226 226 229 228 228 228 229 232 235 233 236 239 241 241 241 246
108 217 160 132 134 101 103 121 220 298 154 175 318 265 256 250 238 243 248 241 242 238 231 229 227 228 230 230 231 229 230 231 232 234 233 238 244 244 242 244 246 250 246 249
168 189 144 133 136 133 101 139 158 223 329 258 306 270 244 259 239 249 246 252 244 248 240 233 229 229 232 232 232 232 232 231 230 233 236 239 244 245 243 243 243 248 248 246
175 132 147 146 164 136 163 173 129 149 139 235 72 281 258 239 237 216 240 242 245 247 248 243 238 232 232 235 236 236 235 233 232 231 236 238 244 246 248 248 247 251 255 250
181 141 130 173 169 149 185 148 127 112 123 103 276 305 258 235 235 238 230 233 246 244 245 246 242 237 238 239 237 237 235 235 234 232 236 240 242 244 245 250 248 244 248 251
156 174 152 163 155 152 145 104 67 73 80 265 202 193 241 211 222 230 232 237 237 245 247 249 250 247 243 239 237 235 232 233 235 235 237 242 244 245 243 242 244 239 251 257
130 164 152 131 100 112 152 142 58 241 212 234 300 214 253 260 253 219 222 236 233 234 240 248 251 249 245 243 239 235 232 230 232 235 237 241 243 246 247 248 246 244 249 252
168 197 162 182 156 164 178 166 160 188 198 240 94 229 252 245 260 251 259 253 240 237 243 245 249 251 246 240 238 237 231 228 230 233 236 239 240 245 248 248 247 243 236 248
138 200 100 149 150 141 188 209 152 80 14 70 216 285 294 260 273 260 250 249 254 247 243 249 250 252 246 233 231 232 228 226 229 232 233 236 241 244 249 250 245 239 229 235
185 121 293 161 118 72 183 145 123 92 225 250 263 270 241 327 258 262 278 267 266 261 252 250 248 239 228 221 221 222 222 225 228 230 232 236 242 247 251 249 242 227 226 230
137 99 190 137 210 155 125 182 185 148 179 185 290 260 216 248 358 315 293 287 279 257 246 241 231 216 214 215 215 217 219 223 227 233 237 241 246 247 244 237 225 218 220 225
191 119 143 201 239 186 188 173 177 174 215 223 132 257 207 190 277 284 285 297 284 251 236 220 209 200 205 213 216 219 223 227 232 237 242 244 237 229 223 217 207 208 215 208
176 132 89 24 347 352 220 177 203 129 73 207 138 260 283 147 238 287 304 319 294 262 225 208 203 202 201 214 225 226 229 230 228 226 225 220 217 210 201 196 195 203 202 219
147 135 165 181 180 136 188 195 182 190 184 220 224 238 247 272 250 322 315 314 309 243 226 221 212 210 205 213 221 224 222 222 221 220 219 212 210 199 193 192 200 204 207 222
133 163 112 44 54 111 154 174 172 193 221 192 242 245 238 244 289 280 279 275 283 255 234 228 222 219 216 213 214 215 213 214 215 216 213 209 204 197 189 192 197 203 212 222
86 182 119 29 16 102 166 195 195 209 226 238 243 261 178 236 243 251 245 259 262 269 259 238 228 222 220 216 211 211 214 214 215 215 213 208 203 199 194 195 200 209 210 220
163 139 122 228 185 105 322 218 198 217 218 219 232 247 180 213 232 244 252 250 258 277 271 263 249 235 229 221 216 215 217 221 220 217 213 210 207 204 202 202 210 213 212 203
169 116 101 156 87 191 253 138 205 205 223 220 256 163 190 227 245 256 260 264 268 266 273 277 268 244 234 225 221 217 216 220 220 218 215 211 210 208 207 207 205 203 201 199
19 155 116 149 196 289 268 175 143 166 252 213 228 239 244 255 262 266 257 255 257 263 264 267 259 242 238 231 226 223 223 221 220 218 216 214 211 209 207 205 204 203 203 200
64 161 143 129 174 216 347 196 174 108 282 174 195 218 228 194 197 251 265 263 257 258 260 258 237 226 228 231 231 229 227 227 225 222 219 214 211 209 208 207 206 205 202 203
94 73 207 151 226 275 225 134 148 166 264 177 213 224 212 191 222 232 258 250 245 244 241 238 227 228 234 231 229 229 230 230 230 224 218 214 212 210 210 211 209 207 207 206
149 154 193 76 195 256 157 90 184 200 204 177 186 209 225 230 223 211 220 231 243 241 235 232 228 229 228 229 231 232 232 231 225 221 218 216 215 213 212 212 212 210 212 213
217 190 172 191 203 217 184 172 191 178 193 200 197 199 214 193 193 199 221 219 195 179 172 179 189 194 210 223 229 233 233 228 225 222 221 219 218 217 216 216 215 215 215 215
237 170 163 108 207 209 192 199 187 181 197 188 180 157 151 153 157 155 139 117 100 94 88 85 84 82 93 180 230 224 221 226 225 226 225 224 222 220 218 218 218 221 222 220
182 135 149 277 270 161 229 211 202 199 190 177 160 153 143 139 134 128 123 116 104 93 84 77 75 74 76 87 218 221 222 221 225 227 228 227 226 225 225 223 223 222 222 223
192 165 164 205 190 162 196 209 205 193 183 175 171 149 140 139 135 129 121 109 100 96 93 86 69 41 20 349 295 247 232 228 228 230 231 231 230 228 226 225 226 225 223 228